Wind_Speed
15 14 13 13 13 14 14 13 13 12 12 12 12 11 12 12 13 14 14 15 16 16 16 16 17 17 17 16 16 16 15 14 14 14 14 13 12 11 11 10 10 9 8 7
16 14 14 13 13 13 13 14 14 14 13 13 13 12 12 13 13 14 14 15 15 16 15 15 16 16 16 16 16 16 15 15 15 15 15 14 13 13 12 11 11 11 10 9
16 15 14 13 12 12 13 14 14 14 12 13 13 12 12 12 13 13 14 14 14 15 15 15 16 15 14 15 16 16 16 15 15 15 16 15 14 14 13 13 12 12 12 11
17 16 15 13 13 13 13 13 13 13 13 14 13 12 12 12 13 14 14 15 15 15 15 16 16 16 16 15 15 16 17 16 15 14 15 15 16 15 14 14 13 13 12 12
19 18 16 15 14 13 13 13 13 13 13 13 12 12 12 12 12 13 14 15 15 16 15 15 16 17 17 16 16 17 17 16 15 15 15 15 15 16 15 15 14 14 14 14
20 19 17 15 14 13 13 14 13 12 12 12 12 12 11 12 12 13 14 15 15 16 16 16 15 15 16 16 16 16 17 17 17 16 15 15 15 15 15 14 15 15 15 14
21 20 18 17 15 14 14 13 13 12 12 11 11 12 12 12 13 13 14 14 15 16 16 16 16 15 15 16 16 16 17 17 18 17 15 15 16 16 16 16 16 16 15 15
23 22 18 18 17 16 15 14 13 13 13 12 12 13 12 12 12 13 13 14 14 15 16 16 16 16 15 16 17 17 18 18 18 18 17 17 16 16 17 17 17 17 16 16
24 22 19 18 17 17 16 16 15 15 14 13 13 13 13 12 12 13 13 14 14 14 15 15 16 16 16 16 17 17 17 17 17 18 18 18 18 18 18 18 18 18 18 17
25 23 22 21 20 19 18 17 17 16 15 15 14 14 14 13 13 13 13 13 13 14 14 15 15 16 16 15 15 16 16 17 17 17 18 18 18 18 18 19 19 20 19 19
25 23 22 22 21 20 19 18 18 17 16 15 15 15 14 14 14 13 13 14 14 13 14 14 15 15 15 15 16 16 17 17 17 18 18 18 19 19 20 20 21 21 21 21
26 24 24 23 22 21 20 19 18 18 17 17 16 16 16 15 14 14 14 15 14 14 15 15 16 16 16 16 17 17 17 17 18 18 18 19 19 19 20 21 22 21 22 22
28 27 26 24 23 22 20 20 19 18 18 18 17 17 17 17 16 16 16 16 16 15 16 16 16 16 16 16 17 17 17 18 18 19 19 20 20 20 21 22 22 23 24 25
30 28 27 25 24 23 22 21 20 19 19 19 18 17 17 17 17 16 16 17 17 16 16 16 16 16 16 17 17 17 18 18 19 20 20 21 21 22 22 23 24 25 25 26
31 30 28 27 26 25 24 22 22 21 20 20 19 18 17 17 17 17 17 17 17 17 18 18 18 18 18 18 19 19 19 20 21 22 22 22 23 24 25 26 26 27 27 28
32 31 31 29 28 27 26 25 24 23 22 22 21 19 18 18 18 18 18 18 18 18 18 19 19 19 19 19 20 20 21 22 22 23 24 24 26 27 28 29 29 30 30 31
32 32 32 30 29 28 27 26 25 24 23 23 22 21 20 20 19 19 19 20 20 20 20 20 20 20 21 21 21 22 22 23 23 24 25 25 26 27 29 30 30 31 32 33
32 32 33 31 30 29 29 28 27 26 24 24 24 23 23 22 21 21 21 21 21 21 21 21 21 21 22 23 23 23 24 24 25 26 27 27 28 28 29 31 32 33 34 35
34 34 33 33 32 31 29 28 27 26 25 25 24 24 24 24 23 23 23 23 23 22 22 22 23 23 23 24 24 25 25 25 26 27 28 29 29 30 31 32 33 34 35 36
35 35 35 34 34 33 31 30 29 28 27 26 26 25 24 24 24 24 24 24 24 24 24 24 24 25 25 26 26 27 27 28 28 29 29 30 31 32 33 34 35 36 37 38
35 36 36 36 35 34 32 31 30 29 28 28 27 26 26 26 25 25 25 25 26 26 26 26 26 27 28 28 29 29 30 30 30 31 32 32 33 34 35 36 37 38 39 40
36 36 36 36 35 35 34 33 32 31 30 29 29 28 28 28 27 27 26 26 26 27 27 28 28 29 30 30 30 31 31 32 32 33 33 34 35 35 36 37 38 39 40 41
36 36 36 36 36 36 35 34 33 32 32 31 31 30 30 30 30 29 28 28 28 28 28 29 30 30 31 32 32 32 33 33 34 34 35 35 36 37 38 39 40 40 41 42
36 37 37 37 37 36 36 34 33 33 33 33 32 32 32 32 31 31 31 30 30 30 30 30 31 31 32 33 33 33 34 34 35 35 36 37 37 38 39 40 41 42 43 44
37 37 38 38 38 37 36 35 34 33 32 33 34 34 33 33 33 32 32 31 31 31 32 32 32 32 32 33 33 34 35 35 36 36 37 37 38 39 40 41 42 42 43 44
37 37 37 37 37 37 37 37 36 36 35 34 34 34 34 34 34 33 33 33 33 33 33 33 33 33 33 34 35 35 36 37 37 38 38 39 40 40 41 42 42 43 44 45
36 36 36 36 36 36 36 37 37 36 36 35 35 35 35 35 35 35 35 34 34 34 34 34 35 35 36 36 36 36 36 37 38 38 39 39 40 41 42 42 44 45 46 46
Wind_Direction
245 245 250 253 249 246 245 246 246 246 251 257 255 250 248 244 238 233 227 220 217 218 221 220 220 219 221 222 221 223 225 225 223 220 219 221 225 228 233 239 243 246 250 257
244 246 247 251 246 246 245 246 246 245 251 252 253 250 245 240 234 229 225 223 220 219 221 222 220 219 220 221 222 223 225 225 225 225 221 221 225 230 236 242 246 249 252 257
243 244 247 247 247 248 247 246 248 246 247 250 250 246 240 235 232 226 221 220 219 219 220 220 218 219 220 221 224 225 225 226 227 228 224 225 230 235 239 245 248 250 253 258
239 242 244 246 247 250 250 247 246 244 244 247 247 242 237 231 230 225 221 220 220 219 220 219 219 221 222 223 225 223 223 226 229 230 229 230 234 239 243 246 249 252 255 259
236 241 243 245 248 251 252 248 244 243 243 243 243 240 236 232 230 225 218 217 218 219 220 220 221 222 223 227 228 226 226 228 230 232 232 234 236 238 243 247 250 254 259 263
235 239 244 244 249 251 252 246 242 241 242 241 239 238 234 232 230 224 219 217 218 219 219 221 223 223 225 228 230 230 227 227 229 231 234 237 239 241 244 249 252 256 261 264
234 238 240 244 245 248 246 244 243 242 240 238 238 239 234 229 225 222 219 218 219 222 222 222 223 225 229 230 231 232 233 232 231 232 234 239 241 243 246 250 253 259 263 266
233 235 236 242 244 245 247 244 241 239 237 238 239 239 232 227 225 223 221 222 223 225 226 226 227 229 233 235 235 235 236 235 234 234 237 240 243 246 249 252 255 258 262 265
232 233 238 242 244 243 243 242 238 237 237 239 240 238 231 228 229 228 224 225 225 226 227 227 228 231 236 236 236 235 237 236 236 237 240 243 245 248 251 254 257 258 261 264
229 230 235 239 242 241 240 240 237 237 238 238 234 231 227 227 230 228 226 226 226 226 228 229 230 232 234 234 236 235 235 237 237 240 244 246 247 250 253 255 259 261 262 264
228 228 232 236 238 239 238 239 237 236 236 234 230 228 227 226 226 228 228 227 227 228 230 232 234 236 235 236 238 239 240 241 242 244 246 250 252 255 257 259 262 263 265 267
227 228 230 232 233 234 236 235 234 234 234 231 228 228 229 228 230 230 230 229 230 231 232 234 236 239 241 241 241 242 245 246 248 251 252 253 254 257 259 261 263 266 268 271
227 229 230 231 232 232 233 233 232 233 235 234 230 231 232 231 231 232 232 233 235 236 236 237 238 239 241 244 245 247 249 250 253 255 257 258 259 260 262 264 266 268 270 272
228 229 229 230 231 230 231 232 232 233 235 236 236 237 236 234 232 233 235 237 238 239 239 240 241 243 244 245 247 250 252 254 257 259 261 260 261 263 265 267 269 271 272 273
229 229 229 230 230 230 230 231 231 232 235 235 237 239 238 237 236 237 239 240 241 242 243 244 245 247 248 249 250 253 255 257 260 262 262 263 265 266 268 270 271 272 274 275
229 229 229 230 231 231 232 232 233 233 235 236 237 238 237 237 238 239 241 242 244 245 246 247 248 249 250 251 253 256 257 260 263 264 265 266 268 268 269 271 271 272 274 276
229 229 228 230 231 230 230 232 233 234 236 237 237 239 238 238 239 241 243 245 246 248 249 250 251 251 253 255 257 258 261 264 266 268 268 269 271 272 272 273 273 274 276 276
230 229 228 230 231 230 231 233 235 236 238 239 239 239 240 241 242 243 245 247 249 250 251 252 254 254 256 259 260 262 264 266 268 270 270 271 272 274 275 276 276 277 277 278
229 229 228 229 230 230 231 232 234 236 239 241 242 242 243 244 244 245 246 249 250 252 253 254 256 258 259 261 262 263 265 268 270 272 273 273 273 275 276 277 278 279 280 281
229 228 228 230 231 231 232 233 233 236 238 240 242 243 244 245 246 247 249 250 251 253 254 255 257 259 260 262 264 265 267 269 271 273 274 275 276 277 279 280 281 282 282 283
227 227 227 230 231 232 233 233 233 235 238 240 242 244 245 246 248 250 252 253 254 255 256 257 259 261 262 264 267 269 270 272 273 274 275 276 277 279 280 281 282 283 284 285
227 227 228 229 229 230 232 233 234 236 238 240 243 245 246 248 250 252 254 255 256 257 259 261 262 264 265 266 268 270 272 274 274 276 277 278 279 280 281 282 284 285 286 287
227 228 230 230 229 229 232 234 236 237 239 241 243 245 247 248 251 253 255 257 258 260 261 263 264 266 267 269 271 273 274 275 275 277 278 279 280 281 282 283 284 286 287 287
229 229 229 230 230 231 233 234 236 238 239 241 243 246 247 249 251 254 255 257 259 261 262 264 266 269 270 271 272 274 275 276 277 278 279 280 281 283 284 285 285 286 287 288
229 230 230 231 232 232 233 234 236 238 241 244 245 247 248 250 252 254 256 258 260 262 264 266 268 269 271 272 274 276 276 277 278 280 281 281 282 284 285 286 288 288 289 290
227 229 231 232 233 234 234 235 237 239 242 244 246 248 249 250 252 254 257 260 261 263 265 267 268 270 272 274 276 277 277 278 279 281 282 283 284 285 287 288 290 290 290 291
227 228 229 230 231 233 235 237 238 240 242 244 246 248 250 251 253 255 258 261 262 264 265 267 270 271 273 275 277 278 279 280 280 281 282 284 285 287 288 289 290 291 292 292
Height
5802 5803 5804 5805 5806 5807 5808 5809 5810 5811 5812 5812 5812 5814 5815 5816 5818 5820 5822 5825 5828 5831 5834 5837 5840 5843 5846 5849 5852 5855 5857 5859 5862 5864 5866 5868 5870 5872 5874 5875 5876 5877 5878 5878
5799 5800 5801 5802 5803 5804 5805 5806 5807 5808 5810 5810 5810 5811 5812 5814 5815 5817 5820 5822 5825 5828 5831 5834 5837 5840 5843 5846 5849 5852 5854 5857 5859 5861 5863 5866 5868 5870 5871 5873 5874 5875 5876 5876
5795 5796 5798 5800 5801 5802 5803 5803 5804 5805 5808 5807 5808 5809 5810 5811 5813 5815 5817 5820 5823 5826 5829 5832 5835 5838 5841 5843 5846 5849 5851 5854 5856 5859 5861 5863 5865 5867 5869 5870 5871 5872 5873 5874
5791 5794 5795 5799 5798 5799 5800 5801 5801 5802 5803 5804 5806 5807 5808 5809 5811 5813 5815 5818 5820 5823 5826 5829 5832 5835 5838 5840 5843 5846 5848 5851 5853 5855 5858 5860 5862 5864 5866 5867 5868 5869 5870 5871
5788 5789 5791 5794 5795 5796 5797 5798 5799 5800 5801 5802 5803 5804 5805 5807 5809 5810 5813 5815 5818 5821 5823 5826 5829 5832 5834 5837 5840 5842 5845 5847 5850 5852 5854 5857 5859 5861 5862 5864 5865 5866 5867 5868
5783 5786 5788 5791 5792 5793 5795 5795 5796 5797 5798 5799 5800 5802 5804 5805 5806 5808 5810 5813 5816 5818 5820 5823 5826 5829 5831 5834 5837 5839 5841 5844 5846 5849 5851 5853 5855 5857 5859 5860 5861 5863 5863 5864
5779 5781 5784 5787 5788 5790 5793 5793 5793 5794 5795 5797 5798 5800 5801 5802 5804 5806 5808 5811 5813 5815 5818 5820 5823 5826 5828 5831 5833 5836 5838 5840 5843 5845 5847 5849 5851 5853 5855 5856 5858 5858 5859 5860
5774 5777 5782 5782 5784 5787 5788 5789 5790 5791 5793 5794 5796 5797 5798 5800 5802 5804 5806 5808 5810 5812 5815 5817 5820 5823 5825 5827 5830 5832 5834 5836 5839 5841 5843 5845 5847 5849 5851 5852 5853 5854 5855 5856
5771 5775 5777 5778 5780 5782 5784 5785 5787 5788 5790 5792 5793 5795 5796 5798 5799 5801 5803 5805 5807 5809 5812 5814 5817 5819 5822 5824 5826 5828 5830 5832 5834 5837 5839 5841 5843 5845 5846 5847 5848 5849 5850 5851
5765 5769 5771 5773 5775 5777 5780 5781 5783 5785 5787 5788 5790 5792 5794 5796 5797 5799 5801 5803 5805 5807 5809 5811 5813 5815 5817 5820 5822 5824 5826 5828 5830 5832 5835 5836 5838 5840 5841 5842 5844 5844 5845 5846
5759 5763 5766 5768 5771 5773 5776 5777 5779 5781 5783 5785 5787 5789 5791 5793 5795 5796 5798 5800 5802 5804 5806 5808 5810 5812 5814 5816 5818 5820 5822 5824 5826 5828 5830 5831 5833 5834 5836 5837 5838 5839 5839 5840
5754 5758 5760 5763 5766 5769 5771 5773 5776 5778 5780 5781 5783 5785 5787 5790 5791 5793 5795 5797 5799 5801 5803 5805 5807 5809 5810 5812 5814 5816 5818 5820 5822 5823 5825 5826 5828 5829 5830 5831 5832 5833 5833 5833
5747 5751 5754 5758 5761 5764 5766 5769 5771 5774 5776 5778 5780 5782 5784 5786 5788 5790 5792 5794 5796 5797 5799 5801 5803 5805 5807 5808 5810 5812 5814 5815 5817 5818 5820 5821 5822 5823 5824 5825 5826 5826 5826 5826
5741 5745 5749 5753 5756 5759 5761 5764 5767 5769 5772 5774 5776 5778 5780 5782 5784 5786 5788 5790 5792 5793 5795 5797 5799 5801 5802 5804 5806 5807 5809 5810 5812 5813 5814 5815 5816 5817 5818 5818 5819 5819 5819 5819
5735 5739 5743 5747 5750 5753 5756 5759 5762 5765 5767 5770 5772 5774 5776 5778 5780 5782 5784 5786 5787 5789 5791 5792 5794 5796 5797 5799 5801 5802 5804 5805 5806 5807 5808 5809 5809 5810 5811 5811 5812 5812 5811 5811
5728 5732 5736 5740 5744 5747 5751 5754 5757 5760 5763 5765 5767 5770 5772 5774 5775 5777 5779 5781 5783 5784 5786 5787 5789 5791 5792 5794 5795 5796 5798 5799 5799 5800 5801 5802 5802 5803 5803 5803 5803 5803 5803 5802
5720 5725 5730 5734 5737 5741 5745 5748 5751 5754 5757 5760 5762 5764 5767 5769 5771 5773 5774 5776 5778 5779 5781 5782 5784 5785 5786 5788 5789 5790 5791 5792 5793 5793 5794 5794 5794 5794 5794 5794 5794 5794 5793 5792
5713 5718 5723 5727 5731 5734 5738 5742 5745 5748 5751 5754 5756 5759 5761 5763 5765 5767 5769 5771 5772 5774 5775 5777 5778 5779 5780 5781 5783 5784 5785 5785 5786 5786 5786 5786 5786 5786 5786 5785 5785 5784 5783 5782
5705 5710 5715 5719 5723 5727 5731 5735 5738 5742 5745 5748 5750 5753 5755 5757 5759 5761 5763 5765 5767 5768 5770 5771 5772 5773 5774 5775 5776 5776 5777 5777 5778 5778 5778 5778 5777 5777 5777 5776 5775 5774 5773 5772
5698 5702 5707 5711 5716 5720 5724 5728 5731 5735 5738 5741 5743 5746 5748 5751 5753 5755 5757 5758 5760 5761 5763 5764 5765 5766 5767 5768 5768 5769 5769 5769 5769 5769 5769 5769 5768 5768 5767 5766 5765 5763 5762 5760
5689 5694 5699 5704 5708 5712 5716 5720 5724 5727 5731 5734 5736 5739 5741 5744 5746 5748 5750 5751 5753 5754 5755 5756 5757 5758 5759 5759 5760 5760 5760 5760 5760 5760 5759 5759 5758 5757 5756 5755 5754 5752 5750 5748
5682 5686 5691 5695 5700 5704 5708 5712 5716 5720 5723 5726 5729 5732 5734 5736 5738 5740 5742 5744 5745 5746 5747 5748 5749 5750 5750 5751 5751 5751 5751 5751 5750 5750 5749 5748 5747 5746 5745 5743 5742 5740 5738 5735
5674 5678 5683 5687 5692 5696 5701 5704 5708 5712 5715 5718 5721 5724 5726 5728 5731 5733 5734 5736 5737 5738 5739 5740 5740 5741 5741 5741 5741 5741 5741 5741 5740 5739 5739 5737 5736 5735 5733 5731 5729 5727 5725 5722
5665 5670 5674 5679 5683 5688 5692 5696 5700 5703 5706 5710 5713 5715 5718 5720 5722 5724 5725 5727 5728 5729 5730 5730 5731 5731 5731 5731 5731 5731 5731 5730 5729 5729 5727 5726 5724 5723 5721 5719 5717 5714 5711 5709
5656 5661 5666 5670 5675 5679 5683 5687 5691 5694 5698 5701 5704 5706 5709 5711 5713 5715 5716 5718 5719 5720 5720 5721 5721 5721 5721 5721 5721 5721 5720 5719 5718 5717 5716 5714 5713 5711 5709 5706 5703 5701 5698 5694
5648 5652 5657 5662 5666 5671 5674 5678 5682 5686 5689 5692 5695 5697 5700 5702 5704 5705 5707 5708 5709 5710 5711 5711 5711 5712 5711 5711 5711 5710 5709 5708 5707 5705 5704 5702 5700 5698 5696 5693 5690 5688 5684 5681
5639 5644 5649 5653 5657 5661 5665 5669 5673 5677 5680 5683 5685 5688 5690 5692 5694 5696 5697 5698 5699 5700 5701 5701 5701 5701 5701 5700 5699 5698 5697 5696 5695 5694 5692 5690 5688 5686 5683 5680 5677 5674 5670 5667